Weather History for Fairhope, AL

Change the Weather History Date:

Monday, February 18, 2013

  Actual Average (KBFM) Record (KBFM)
Temperature  
Mean Temperature 9 °C -  
Max Temperature 18 °C 16 °C 22 °C (2000)
Min Temperature 0 °C 6 °C -1 °C (2007)
Degree Days  
Heating Degree Days 17    
Moisture  
Dew Point 6 °C    
Average Humidity 71    
Maximum Humidity 100    
Minimum Humidity 42    
Precipitation  
Precipitation 0.00 mm - - ()
Sea Level Pressure  
Sea Level Pressure 1023 hPa    
Wind  
Wind Speed 10 km/h (SE)    
Max Wind Speed 34 km/h    
Max Gust Speed 48 km/h    
Visibility 14 kilometers    
Events Rain    
Averages and records for this station are not official NWS values.
T = Trace of Precipitation, MM = Missing Value Source: NWS Daily Summary

Daily Weather History Graph

Daily Weather History Graph

Search for Another Location

Airport:

Trip Planner

Search our weather history database for the weather conditions in past years. The results will help you decide how hot, cold, wet, or windy it might be!

Date:

Astronomy

Feb. 18, 2013 Rise Set
Actual Time 6:28 AM CST 5:42 PM CST
Civil Twilight 6:04 AM CST 6:06 PM CST
Nautical Twilight 5:36 AM CST 6:34 PM CST
Astronomical Twilight 5:08 AM CST 7:02 PM CST
Moon 11:39 AM CST (2/18) 12:57 AM CST (2/18)
Length of Visible Light 12h 02m
Length of Day
11h 13m
First Quarter, 58% of the Moon is Illuminated
Feb 18
First Quarter
Feb 25
Full
Mar 4
Last Quarter
Mar 11
New
Mar 19
First Quarter

Hourly Weather History & Observations

Time (CST) Temp. Dew Point Humidity Pressure Visibility Wind Dir Wind Speed Gust Speed Precip Events Conditions
12:15 AM 0.0 °C 0.0 °C 100% 1025.6 hPa 16.1 km Calm Calm - N/A   Clear
12:35 AM 0.0 °C 0.0 °C 100% 1025.6 hPa 16.1 km Calm Calm - N/A   Clear
12:55 AM 0.0 °C 0.0 °C 100% 1025.6 hPa 16.1 km Calm Calm - N/A   Clear
1:15 AM 0.0 °C 0.0 °C 100% 1025.3 hPa 16.1 km Calm Calm - N/A   Clear
1:35 AM 1.0 °C 0.0 °C 93% 1025.6 hPa 16.1 km Calm Calm - N/A   Clear
1:55 AM 1.0 °C 0.0 °C 93% 1025.3 hPa 16.1 km Calm Calm - N/A   Clear
2:15 AM 1.0 °C 1.0 °C 100% 1024.9 hPa 16.1 km Calm Calm - N/A   Clear
2:35 AM 0.0 °C 0.0 °C 100% 1024.9 hPa 16.1 km Calm Calm - N/A   Clear
2:55 AM 1.0 °C 1.0 °C 100% 1024.9 hPa 16.1 km Calm Calm - N/A   Clear
3:15 AM 0.0 °C 0.0 °C 100% 1024.6 hPa 16.1 km Calm Calm - N/A   Clear
3:35 AM 0.0 °C 0.0 °C 100% 1024.6 hPa 16.1 km Calm Calm - N/A   Clear
3:55 AM 0.0 °C 0.0 °C 100% 1024.6 hPa 16.1 km Calm Calm - N/A   Clear
4:15 AM 0.0 °C 0.0 °C 100% 1024.3 hPa 16.1 km Calm Calm - N/A   Clear
4:35 AM 1.0 °C 1.0 °C 100% 1024.6 hPa 16.1 km Calm Calm - N/A   Clear
4:55 AM 1.0 °C 1.0 °C 100% 1024.9 hPa 16.1 km Calm Calm - N/A   Clear
5:15 AM 1.0 °C 1.0 °C 100% 1024.9 hPa 16.1 km Calm Calm - N/A   Clear
5:55 AM 1.0 °C 1.0 °C 100% 1024.9 hPa 16.1 km Calm Calm - N/A   Clear
6:15 AM 1.0 °C 1.0 °C 100% 1024.9 hPa 16.1 km Calm Calm - N/A   Clear
6:35 AM 1.0 °C 1.0 °C 100% 1024.9 hPa 16.1 km Calm Calm - N/A   Clear
6:55 AM 1.0 °C 1.0 °C 100% 1025.3 hPa 16.1 km Calm Calm - N/A   Clear
7:15 AM 2.0 °C 2.0 °C 100% 1025.3 hPa 16.1 km Calm Calm - N/A   Clear
7:35 AM 4.0 °C 4.0 °C 100% 1025.3 hPa 16.1 km Calm Calm - N/A   Clear
7:55 AM 8.0 °C 6.0 °C 87% 1025.3 hPa 16.1 km Calm Calm - N/A   Clear
8:15 AM 11.0 °C 7.0 °C 76% 1025.6 hPa 16.1 km Calm Calm - N/A   Clear
8:35 AM 13.0 °C 7.0 °C 67% 1025.6 hPa 16.1 km SE 7.4 km/h / 2.1 m/s - N/A   Clear
8:55 AM 15.0 °C 7.0 °C 59% 1025.6 hPa 16.1 km ESE 9.3 km/h / 2.6 m/s - N/A   Clear
9:15 AM 16.0 °C 6.0 °C 52% 1025.6 hPa 11.3 km SE 24.1 km/h / 6.7 m/s 31.5 km/h / 8.7 m/s N/A   Clear
9:35 AM 17.0 °C 6.0 °C 48% 1026.0 hPa 11.3 km SE 22.2 km/h / 6.2 m/s 27.8 km/h / 7.7 m/s N/A   Clear
9:55 AM 17.0 °C 5.0 °C 45% 1026.0 hPa 11.3 km SSE 27.8 km/h / 7.7 m/s - N/A   Clear
10:15 AM 17.0 °C 5.0 °C 45% 1026.0 hPa 11.3 km SE 31.5 km/h / 8.7 m/s 42.6 km/h / 11.8 m/s N/A   Clear
10:35 AM 17.0 °C 5.0 °C 45% 1026.0 hPa 16.1 km SE 27.8 km/h / 7.7 m/s 33.3 km/h / 9.3 m/s N/A   Clear
10:55 AM 18.0 °C 5.0 °C 42% 1026.0 hPa 11.3 km SSE 27.8 km/h / 7.7 m/s 42.6 km/h / 11.8 m/s N/A   Clear
11:15 AM 18.0 °C 6.0 °C 45% 1026.0 hPa 11.3 km SE 27.8 km/h / 7.7 m/s 37.0 km/h / 10.3 m/s N/A   Scattered Clouds
11:35 AM 18.0 °C 6.0 °C 45% 1026.0 hPa 16.1 km South 27.8 km/h / 7.7 m/s 38.9 km/h / 10.8 m/s N/A   Scattered Clouds
11:55 AM 18.0 °C 6.0 °C 45% 1025.6 hPa 16.1 km SE 24.1 km/h / 6.7 m/s 35.2 km/h / 9.8 m/s N/A   Scattered Clouds
12:15 PM 18.0 °C 6.0 °C 45% 1025.3 hPa 11.3 km SSE 29.6 km/h / 8.2 m/s 40.7 km/h / 11.3 m/s N/A   Mostly Cloudy
12:35 PM 18.0 °C 6.0 °C 45% 1024.9 hPa 11.3 km SE 27.8 km/h / 7.7 m/s 40.7 km/h / 11.3 m/s N/A   Mostly Cloudy
12:55 PM 18.0 °C 6.0 °C 45% 1023.9 hPa 16.1 km SSE 33.3 km/h / 9.3 m/s - N/A   Mostly Cloudy
1:15 PM 18.0 °C 6.0 °C 45% 1023.6 hPa 16.1 km SE 27.8 km/h / 7.7 m/s 44.4 km/h / 12.3 m/s N/A   Scattered Clouds
1:35 PM 18.0 °C 6.0 °C 45% 1023.2 hPa 11.3 km SE 33.3 km/h / 9.3 m/s 40.7 km/h / 11.3 m/s N/A   Clear
1:55 PM 18.0 °C 7.0 °C 49% 1022.9 hPa 11.3 km ESE 31.5 km/h / 8.7 m/s 44.4 km/h / 12.3 m/s N/A   Scattered Clouds
2:15 PM 18.0 °C 6.0 °C 45% 1022.2 hPa 11.3 km ESE 25.9 km/h / 7.2 m/s 40.7 km/h / 11.3 m/s N/A   Clear
2:35 PM 18.0 °C 6.0 °C 45% 1021.9 hPa 11.3 km SE 33.3 km/h / 9.3 m/s 42.6 km/h / 11.8 m/s N/A   Clear
2:55 PM 17.0 °C 6.0 °C 48% 1021.2 hPa 8.0 km SE 29.6 km/h / 8.2 m/s 48.2 km/h / 13.4 m/s N/A   Haze
3:15 PM 18.0 °C 7.0 °C 49% 1021.2 hPa 11.3 km SE 27.8 km/h / 7.7 m/s 38.9 km/h / 10.8 m/s N/A   Mostly Cloudy
3:55 PM 17.0 °C 7.0 °C 52% 1021.6 hPa 6.4 km SE 27.8 km/h / 7.7 m/s 40.7 km/h / 11.3 m/s N/A   Haze
4:15 PM 16.0 °C 7.0 °C 55% 1021.2 hPa 11.3 km SE 25.9 km/h / 7.2 m/s 33.3 km/h / 9.3 m/s N/A   Mostly Cloudy
4:35 PM 16.0 °C 7.0 °C 55% 1020.9 hPa 11.3 km ESE 24.1 km/h / 6.7 m/s 42.6 km/h / 11.8 m/s N/A   Scattered Clouds
4:55 PM 16.0 °C 7.0 °C 55% 1020.9 hPa 11.3 km SE 25.9 km/h / 7.2 m/s 33.3 km/h / 9.3 m/s N/A   Scattered Clouds
5:15 PM 16.0 °C 7.0 °C 55% 1020.9 hPa 11.3 km SE 18.5 km/h / 5.1 m/s - N/A   Mostly Cloudy
5:55 PM 16.0 °C 7.0 °C 55% 1020.5 hPa 11.3 km SE 18.5 km/h / 5.1 m/s 33.3 km/h / 9.3 m/s N/A   Overcast
6:15 PM 15.0 °C 7.0 °C 59% 1020.9 hPa 16.1 km SE 18.5 km/h / 5.1 m/s 29.6 km/h / 8.2 m/s N/A   Overcast
6:35 PM 16.0 °C 8.0 °C 59% 1020.9 hPa 11.3 km ESE 14.8 km/h / 4.1 m/s - N/A   Overcast
6:55 PM 16.0 °C 8.0 °C 59% 1020.2 hPa 16.1 km SE 20.4 km/h / 5.7 m/s - N/A   Overcast
7:15 PM 16.0 °C 8.0 °C 59% 1020.2 hPa 8.0 km ESE 18.5 km/h / 5.1 m/s 27.8 km/h / 7.7 m/s N/A   Haze
7:35 PM 16.0 °C 8.0 °C 59% 1019.9 hPa 16.1 km SE 22.2 km/h / 6.2 m/s 31.5 km/h / 8.7 m/s N/A   Overcast
7:55 PM 16.0 °C 9.0 °C 63% 1020.2 hPa 16.1 km SE 18.5 km/h / 5.1 m/s 35.2 km/h / 9.8 m/s N/A   Overcast
8:15 PM 16.0 °C 10.0 °C 68% 1020.2 hPa 16.1 km SE 16.7 km/h / 4.6 m/s - N/A   Overcast
8:35 PM 16.0 °C 10.0 °C 68% 1020.2 hPa 16.1 km SE 20.4 km/h / 5.7 m/s - N/A   Overcast
8:55 PM 16.0 °C 10.0 °C 68% 1019.9 hPa 16.1 km SE 25.9 km/h / 7.2 m/s 35.2 km/h / 9.8 m/s N/A   Overcast
9:15 PM 16.0 °C 10.0 °C 68% 1019.9 hPa 16.1 km SSE 18.5 km/h / 5.1 m/s - N/A   Overcast
9:35 PM 16.0 °C 11.0 °C 72% 1019.5 hPa 16.1 km SE 20.4 km/h / 5.7 m/s - N/A   Mostly Cloudy
9:55 PM 16.0 °C 11.0 °C 72% 1019.2 hPa 16.1 km SE 24.1 km/h / 6.7 m/s 35.2 km/h / 9.8 m/s N/A   Mostly Cloudy
10:15 PM 16.0 °C 11.0 °C 72% 1018.8 hPa 16.1 km SE 24.1 km/h / 6.7 m/s 31.5 km/h / 8.7 m/s N/A Rain Light Rain
10:35 PM 16.0 °C 11.0 °C 72% 1018.5 hPa 16.1 km SSE 27.8 km/h / 7.7 m/s 40.7 km/h / 11.3 m/s N/A   Overcast
10:55 PM 17.0 °C 12.0 °C 72% 1018.2 hPa 16.1 km SE 22.2 km/h / 6.2 m/s 38.9 km/h / 10.8 m/s N/A   Mostly Cloudy
11:15 PM 17.0 °C 12.0 °C 72% 1018.2 hPa 16.1 km SE 24.1 km/h / 6.7 m/s - N/A   Mostly Cloudy
11:35 PM 17.0 °C 12.0 °C 72% 1017.2 hPa 16.1 km SE 31.5 km/h / 8.7 m/s 42.6 km/h / 11.8 m/s N/A   Overcast
11:55 PM 17.0 °C 12.0 °C 72% 1017.5 hPa 11.3 km SSE 31.5 km/h / 8.7 m/s 38.9 km/h / 10.8 m/s N/A   Overcast